Location: Rounton
(54.4000°N, 1.3500°W)
Time: 02:00:25
(UTC+00:00)

SR - Pass Details

Date: 09 December 2021
Orbit: 582 x 872 km, 66.7° (Epoch: 26 January)

Event Time Altitude Azimuth Distance (km) Brightness Sun altitude
Exits shadow 05:48:49 33° 336° (NNW) 1,007 ? -19.7°
Maximum altitude 05:50:34 62° 44° (NE) 682 ? -19.4°
Drops below altitude 10° 05:54:59 10° 125° (SE) 1,992 ? -18.8°
Sets 05:57:20 0° 129° (SE) 2,934 ? -18.5°
